Neenah, WI (54956)

6:34 PM CDT on July 25, 2016 (GMT -0500)
Westwind Village | | Change Station

Elev 774 ft 44.17 °N, 88.50 °W | Updated 4 minutes ago

Scattered Clouds
Scattered Clouds
82.2 °F
Feels Like 84 °F
N
0.0
Wind Variable Wind from East

Today
High -- | Low -- °F
--% Chance of Precip.
Yesterday
High -- | Low -- °F
Precip. -- in
Pressure 29.97 in
Visibility 10.0 miles
Clouds Scattered Clouds 6000 ft
Heat Index 84 °F
Dew Point 65 °F
Humidity 56%
Rainfall 0.00 in
Snow Depth Not available.
5:34 AM 8:25 PM
Waning Gibbous, 61% visible
METAR KATW 252245Z 30008KT 10SM SCT060 28/14 A2997
Pressure 29.97 in
Visibility 10.0 miles
Clouds Scattered Clouds 6000 ft
Heat Index 84 °F
Dew Point 65 °F
Humidity 56%
Rainfall 0.00 in
Snow Depth Not available.
5:34 AM 8:25 PM
Waning Gibbous, 61% visible
METAR KATW 252245Z 30008KT 10SM SCT060 28/14 A2997

10-Day Weather Forecast

Almanac

Astronomy

Jul. 25, 2016 Rise Set
Actual Time
Civil Twilight
Nautical Twilight
Astronomical Twilight
Moon
Length of Visible Light
Length of Day
Tomorrow will be .
, % of the Moon is Illuminated

Today's Extremes

State Highs State Lows

Community

WunderPhotos

Upload Photos

1,927,445 photos uploaded!

WunderBlog® & News

Nearby

Air Quality

  Air Quality AQ Index Pollutant
Not available.

Snow Depth

Station Depth Elevation

Earthquake Activity

City Distance Mag. Time & Date
Minimum magnitude displayed is 2.5.

Coastal Water Temperatures

Place Temperature

Stations

Nearby Weather Stations

Station Location Temp. Windchill Dew Point Humidity Wind Precip. Elev Updated Type
                   

Watches & Warnings

There are currently no watches in effect.